Regional Weather Roundup
Issued by NWS Newport/Morehead, NC

Current Version | Previous Version | Graphics & Text | Print | Product List | Glossary On
Versions: 1 2 3 4 5 6 7 8 9 10 11 12 13 14 15 16 17 18 19 20 21 22 23 24 25 26 27 28 29 30 31 32 33 34 35 36 37 38 39 40 41 42 43 44 45 46 47 48 49 50
000 ASUS42 KMHX 281824 RWRMHX WEATHER ROUNDUP FOR EASTERN NORTH CAROLINA NATIONAL WEATHER SERVICE NEWPORT/MOREHEAD CITY NC 200 PM EDT THU MAY 28 2015 NOTE: "FAIR" INDICATES FEW OR NO CLOUDS BELOW 12,000 FEET WITH NO SIGNIFICANT WEATHER AND/OR OBSTRUCTIONS TO VISIBILITY NCZ015>017-031-032-045>047-102-103-281900- NORTH COAST CITY SKY/WX TMP DP RH WIND PRES REMARKS EDENTON N/A 83 68 61 W5 30.22S ELIZABETH CITY CLOUDY 80 68 66 SE5 30.22F KITTY HAWK CLEAR 80 63 54 S8G16 30.22S MANTEO SUNNY 78 64 61 S14 30.24S $$ NCZ045>047-081-094-103-104-281900- CENTRAL COAST CITY SKY/WX TMP DP RH WIND PRES REMARKS FRISCO SUNNY 80 59 48 S7 30.25F SWANQUARTER N/A 81 N/A N/A SE12 30.21S $$ NCZ095-097-098-100-101-281900- SOUTHERN COAST CITY SKY/WX TMP DP RH WIND PRES REMARKS BEAUFORT CLOUDY 78 63 59 S8 30.24F CEDAR ISLAND N/A 81 N/A N/A E12 30.27F JACKSONVILLE MOSUNNY 81 62 52 SE9 30.23S PINEY ISLAND CLEAR N/A N/A N/A SE9 30.24F WILMINGTON SUNNY 81 63 54 SE10 30.23F $$ NCZ011>013-027>030-043-044-078>080-089-090>093-098-281900- COASTAL PLAIN CITY SKY/WX TMP DP RH WIND PRES REMARKS AHOSKIE PTSUNNY 81 69 65 S6 30.21F CLINTON MOSUNNY 84 69 61 CALM 30.22F ELIZABETHTOWN PTSUNNY 84 64 51 S6 30.21F GOLDSBORO PTSUNNY 83 68 60 S1 30.19F GREENVILLE MOSUNNY 82 68 61 W5 30.23S HAVELOCK PTSUNNY 82 64 54 S6 30.24F KENANSVILLE CLOUDY 81 64 56 SE3 30.23F KINSTON MOSUNNY 84 66 54 CALM 30.22F NEW BERN SUNNY 85 65 51 SE8 30.23F RICHLANDS CLOUDY 82 64 54 SE7 30.23S ROCKY MOUNT MOSUNNY 84 69 60 VRB6 30.22F WASHINGTON MOSUNNY 84 67 57 SE8 30.22S WHITEVILLE PTSUNNY 83 65 54 E6 30.21F $$ AMZ130-135-150-152-154-156-158-170-250-252-270-ANZ085-086-088-633-658-670-281900- MARINE OBSERVATIONS STATION/POSITION TIME TEMP WIND PRES WAVE SWELL AIR SEA DIR/SP/G HT/PER HT/PER (UTC) (F) (DEG/KT/KT) (MB) (FT/S) (FT/S) CHESAPEAKE LIGHT 1800 68 170/ 22/ 23 1023.3 64 E VA BEACH 1750 67 65 160/ 10/ 10 1023.6 3/ 8 2/ 8 DUCK 1800 66 54 140/ 11/ 15 1022.6 2 E DUCK 1711 61 N/A 2/ 8 OREGON INLET 1800 77 77 170/ 11/ 15 1023.8 13E OREGON INLT 1800 71 N/A 2/ 7 HATTERAS CG 1800 76 75 150/ 6/ 9 1023.8 DIAMOND BUOY 1750 75 78 150/ 4/ 6 1024.5 3/ 8 3/ 8 CAPE LOOKOUT 1800 75 130/ 7/ 8 1023.9 BEAUFORT LAB 1800 76 76 180/ 9/ 11 1023.4 27 SE WRIGHTSVLE 1800 77 130/ 6/ 6 N/A 5 SE WRIGHTSVLE 1708 76 78 160/ 4/ 8 1024.3 225 S CAPE HAT 1750 74 74 40/ 14/ 16 1023.0 5/ 8 3/ 8 41 SE CHARLESTON 1750 76 79 100/ 6/ 8 1023.2 3/ 8 3/ 8 $$

USA.gov is the U.S. government's official web portal to all federal, state and local government web resources and services.